Location: 10033 Water Well
(34.0865°N, 106.8959°W)
Time: 16:13:00
(UTC+00:00)

SL-08 R/B - Pass Details

Date: 13 January 2026
Orbit: 950 x 1017 km, 82.9° (Epoch: 10 February)

Event Time Altitude Azimuth Distance (km) Brightness Sun altitude
Rises 02:07:59 0° 357° (N) 3,746 7.5 -22.2°
Reaches altitude 10° 02:10:33 10° 0° (N) 2,798 6.8 -22.7°
Maximum altitude 02:16:57 65° 82° (E) 1,107 4.5 -24.0°
Drops below altitude 10° 02:23:20 10° 164° (SSE) 2,790 6.8 -25.3°
Sets 02:25:53 0° 167° (SSE) 3,734 7.5 -25.9°
